Hourly Data Report for June 18, 2006

TORONTO CITY
ONTARIO

43°40'00.000" N
79°24'00.000" W
112.50 m
6158355
71508
XTO

Download Data

Hourly Data (June 2006)
Hourly Data Report for June 18, 2006
TIME
LST
Temp Definition
°C
Dew Point Definition
°C
Rel Hum Definition
%
Precip. Amount Definition
mm

Wind Dir Definition
10's deg

Wind Spd Definition
km/h
Visibility Definition
km
Stn Press Definition
kPa
Hmdx Definition


Wind Chill Definition


Weather Definition


00:00 22.3 15.7 66   LegendMM LegendMM   100.12 27   LegendNANA
01:00 21.1 16.1 73   LegendMM LegendMM   100.08 26   LegendNANA
02:00 20.8 15.8 73   LegendMM LegendMM   100.06 25   LegendNANA
03:00 20.4 15.7 74   LegendMM LegendMM   100.04 25   LegendNANA
04:00 20.2 15.9 76   LegendMM LegendMM   100.03 25   LegendNANA
05:00 19.5 16.3 82   LegendMM LegendMM   100.04     LegendNANA
06:00 20.4 17.8 85   LegendMM LegendMM   100.07 26   LegendNANA
07:00 22.5 18.2 77   LegendMM LegendMM   100.05 29   LegendNANA
08:00 24.2 19.1 73   LegendMM LegendMM   100.01 31   LegendNANA
09:00 25.5 20.2 73   LegendMM LegendMM   99.96 33   LegendNANA
10:00 27.3 21.2 69   LegendMM LegendMM   99.93 36   LegendNANA
11:00 27.5 21.6 70   LegendMM LegendMM   99.91 36   LegendNANA
12:00 28.9 20.6 61   LegendMM LegendMM   99.86 37   LegendNANA
13:00 29.5 20.7 59   LegendMM LegendMM   99.82 38   LegendNANA
14:00 29.3 20.5 59   LegendMM LegendMM   99.77 37   LegendNANA
15:00 30.0 20.9 58   LegendMM LegendMM   99.72 38   LegendNANA
16:00 29.1 19.5 56   LegendMM LegendMM   99.68 36   LegendNANA
17:00 28.6 19.2 57   LegendMM LegendMM   99.63 36   LegendNANA
18:00 28.1 19.0 58   LegendMM LegendMM   99.60 35   LegendNANA
19:00 25.8 18.3 63   LegendMM LegendMM   99.59 32   LegendNANA
20:00 25.9 18.4 63   LegendMM LegendMM   99.58 32   LegendNANA
21:00 25.8 18.3 63   LegendMM LegendMM   99.56 32   LegendNANA
22:00 24.0 18.0 69   LegendMM LegendMM   99.59 30   LegendNANA
23:00 24.4 17.8 67   LegendMM LegendMM   99.55 30   LegendNANA

Notes on Data Quality.

Legend

  • E = Estimated
  • M = Missing
  • NA = Not Available*
  • [empty] = Indicates an unobserved value
Date modified: